www.pogodaiklimat.ru

Погода и климат >> Архив погоды >> Индия >> Харьяна >> Хисар


ПОГОДА в Хисаре

  • Прогноз погоды в Хисаре
  • Монитор погоды в Хисаре

АРХИВ ПОГОДЫ в Хисаре

Время (UTC), дата Ветер
(напр.,м/с)
 
Видим.   Явления Облачность Т
(С)
Тd
(С)
f
(%)
Тe
(С)
Тes
(С)
Комфортность P
(гПа)
Po
(гПа)
Тmin
(С)
Tmax
(С)
R
(мм)
R24
(мм)
S
(см)
15 11.02 ЮЗ 1 2000 м мгла 4/0
[Ac trans]
+14.0 +10.2 78 +15 +15 1021.0 994.5
18 11.02 З 1 1000 м дымка 3/3 1000 м
[Cu hum]
+10.8 +9.2 90 +11 +11 1021.6 994.8
21 11.02 штиль 0 1000 м дымка 5/0
[Ac trans Ci fib]
+10.6 +9.8 95 +10 +10 1021.2 994.4
00 12.02 штиль 0 1000 м дымка 4/0
[Ac trans Ci fib]
+10.4 +9.6 95 +10 +10 1020.8 994.0
03 12.02 штиль 0 500 м туман 6/0
[Ac trans Ci fib]
+10.0 +9.6 97 +9 +11 1022.3 995.4 +8.4 +22.0
06 12.02 СВ 1 4000 м 6/0
[Ci sp]
+19.0 +9.6 54 +21 +34 комфорт 1022.8 996.7
09 12.02 СВ 1 4000 м 6/0
[Ci sp]
+20.6 +11.2 55 +24 +33 комфорт 1020.0 994.1
12 12.02 С 1 4000 м 5/0
[Ac trans Ci fib]
+19.4 +9.7 53 +21 +22 комфорт 1020.8 994.8 +22.1
15 12.02 штиль 0 4000 м 1/0
[Ac trans]
+14.4 +14.4 100 +14 +14 1022.1 995.6
18 12.02 штиль 0 4000 м 4/0
[Ci fib]
+11.8 +9.4 85 +11 +11 1023.4 996.6
21 12.02 штиль 0 4000 м 6/0
[Ac trans Ci fib]
+11.6 +9.2 85 +11 +11 1022.3 995.5
00 13.02 штиль 0 2000 м дымка 9/0
[Ac trans Ci fib]
+12.2 +10.7 91 +12 +12 1021.7 995.0
03 13.02 СВ 1 2000 м дымка 8/0
[Ac trans Ci fib]
+12.2 +10.7 91 +13 +15 1022.8 996.1 +11.1 +22.1
06 13.02 ЮВ 1 2000 м мгла 8/5 1000 м
[Sc Ac trans]
+19.4 +12.7 65 +22 +26 комфорт 1022.2 996.1
09 13.02 ЮВ 1 2000 м мгла 8/5 1000 м
[Sc Ac trans]
+22.4 +13.4 57 +25 +29 комфорт 1018.7 993.0
12 13.02 ЮВ 1 2000 м мгла 6/5 1000 м
[Sc Ac trans]
+20.2 +15.5 74 +24 +24 комфорт 1017.5 991.6 +22.8
15 13.02 ЮВ 1 1000 м дымка 8/8 1000 м
[Sc]
+15.0 +11.3 79 +16 +16 1019.0 992.6
18 13.02 штиль 0 1000 м дымка 8/5 1000 м
[Sc Ac trans]
+12.4 +10.5 88 +12 +12 1020.2 993.6
21 13.02 ЮВ 1 1000 м дымка 10/8 1000 м
[St As op]
+14.4 +12.6 89 +15 +15 1016.6 990.2
00 14.02 ЮВ 1 1000 м гроза без осадков 10/6 600 м
[Cb cap Ac trans]
+16.0 +13.5 85 +17 +17 1015.5 989.3 0.0
03 14.02 В 1 1000 м гроза без осадков 9/6 1000 м
[Sc Ac trans]
+15.8 +13.3 85 +17 +18 1015.1 988.9 +15.1 +22.8
06 14.02 штиль 0 50 км мгла ?/? +19.0 +14.5 75 +20 +20 1015.5 989.6
09 14.02 ЮВ 2 4000 м 6/4 1000 м
[Sc Ac trans]
+20.4 +13.0 62 +23 +27 комфорт 1013.2 987.5
12 14.02 В 2 2000 м мгла 10/5 600 м
[Sc As op]
+20.4 +15.0 71 +24 +24 комфорт 1012.2 986.5 +22.0
18 14.02 СВ 2 1000 м дымка ясно +15.6 +12.7 83 +15 +15 1015.9 989.7
00 15.02 Ю 1 50 м туман ?/? +15.0 +14.3 96 +16 +16 1015.8 989.5
03 15.02 ЮЗ 1 500 м туман 9/5 1000 м
[St Ac trans]
+15.0 +14.6 97 +16 +17 1017.4 991.1 +14.2 +22.0 0.0
06 15.02 З 1 500 м туман ?/? +14.6 +13.5 93 +15 +15 1018.7 992.3
09 15.02 З 1 500 м туман ясно +16.0 +13.5 85 +17 +29 опасность
простуды
1016.6 990.4
12 15.02 З 1 1000 м дымка 8/5 1000 м
[Sc Ac trans]
+16.4 +13.9 85 +17 +17 1015.8 989.6 +16.7
15 15.02 З 1 1000 м дымка 8/5 1000 м
[Sc Ac trans]
+16.0 +12.4 79 +17 +17 1016.8 990.6
18 15.02 З 1 1000 м дымка 8/5 1000 м
[Sc Ac trans]
+15.4 +11.7 79 +17 +17 1018.5 992.2
21 15.02 З 1 500 м туман ясно +13.0 +11.9 93 +13 +13 1018.1 991.6
00 16.02 З 1 500 м туман ясно +11.4 +10.6 95 +11 +11 1018.0 991.3
03 16.02 З 1 500 м туман ясно +11.0 +10.6 97 +11 +14 1020.1 993.3 +10.0 +16.7
06 16.02 СЗ 1 500 м туман ясно +13.4 +12.3 93 +13 +27 опасность
простуды
1021.3 994.7
09 16.02 СЗ 2 2000 м мгла 4/4 1000 м
[Cu hum]
+17.8 +12.8 73 +19 +24 1018.1 992.0
12 16.02 СЗ 2 2000 м мгла 3/3 1000 м
[Cu hum]
+18.4 +13.5 73 +20 +20 1017.1 991.1 +19.2
15 16.02 СЗ 1 1000 м дымка ясно +14.4 +12.6 89 +15 +15 1018.5 992.1
18 16.02 СЗ 1 1000 м дымка ясно +12.6 +11.1 91 +13 +13 1019.5 992.9
21 16.02 СЗ 1 1000 м дымка ясно +10.8 +10.0 95 +11 +11 1017.7 991.0
00 17.02 СЗ 1 1000 м дымка ясно +9.0 +8.6 97 +9 +9 1016.1 989.3
03 17.02 СЗ 1 1000 м дымка 4/0
[Ci fib]
+8.8 +8.4 97 +9 +12 1017.6 990.7 +8.2 +19.2
06 17.02 СЗ 1 4000 м 5/0
[Ci sp]
+19.0 +8.7 51 +21 +35 комфорт 1017.3 991.3
09 17.02 З 1 4000 м 3/0
[Ci fib]
+20.8 +7.7 43 +24 +34 комфорт 1014.3 988.6
12 17.02 СЗ 1 4000 м 4/1 1000 м
[Cu hum Ci fib]
+19.6 +9.5 52 +22 +22 комфорт 1012.4 986.6 +21.8
15 17.02 штиль 0 2000 м дымка 1/0
[Ac trans]
+13.8 +9.5 75 +13 +13 1013.2 986.9
00 18.02 штиль 0 1000 м дымка ясно +13.4 +10.7 84 +13 +13 1011.1 984.8
03 18.02 С 1 2000 м дымка 5/5
[Sc]
+14.0 +10.2 78 +15 +17 1012.1 985.8 +12.2 +21.8
06 18.02 ЮВ 1 4000 м 6/4 1000 м
[Cu hum Ac trans]
+21.0 +9.0 46 +24 +30 комфорт 1011.3 985.7
09 18.02 ЮВ 1 4000 м 5/3 1000 м
[Cu hum Ci fib]
+23.4 +10.2 43 +25 +33 комфорт 1007.6 982.3

 

Местоположение метеостанции Хисар (Харьяна, Индия): широта 29.17 долгота 75.73 высота над уровнем моря 221 м.

В архиве по умолчанию представлена погода в Хисаре за последнюю неделю. Архивные данные за месяц целиком и за предыдущие месяцы, начиная с января 2011 года, Вы можете получить, выбрав интересующий диапазон дат из раскрывающегося списка и нажав кнопку "Ввод!".


*Определитесь, кто Вы:
робот инопланетянин человек

Внимание! Время в таблицах - всемирное. Для получения местного времени необходимо прибавить поправку, которая равна 5.5 ч.

Смотрите также архив погоды в соседних городах и на ближайших метеорологических станциях:

Погода в Рохтаке (Харьяна, Индия) (91 км)
Погода в Пилани (Раджастхан, Индия) (95 км)
Погода в Чуру (Раджастхан, Индия) (129 км)
Погода в Карнале (Харьяна, Индия) (139 км)
Погода в Патиале (Пенджаб, Индия) (147 км)
Погода в Нью-Дели аэропорт (округ Дели, Индия) (151 км)
Погода в Нью-Дели Айя Нагар (округ Дели, Индия) (157 км)
Погода в Нью-Дели (округ Дели, Индия) (157 км)
Погода в Ридже (округ Дели, Индия) (162 км)
Погода в Амбале (Харьяна, Индия) (166 км)

Пояснения к столбцам:

Ветер - указаны скорость ветра в м/с - средняя за 10 мин, порывы в срок и между сроками (в фигурных скобках) и направление, откуда дует ветер: С - северный, СВ - северо-восточный, В - восточный, ЮВ - юго-восточный, Ю - южный, ЮЗ - юго-западный, З - западный, СЗ - северо-западный.
Видимость - горизонтальная дальность видимости в метрах или километрах. При видимости от 1 до 10 км при отсутствии осадков обычно наблюдается дымка, при ухудшении видимости до 1 км и менее - туман. В сухую погоду видимость может ухудшаться дымом, пылью или мглою.
Явления - указаны атмосферные явления, наблюдавшиеся в срок или в последний час перед сроком; фигурными скобками обозначены явления, наблюдавшиеся между сроками (за 1-3 часа до срока); квадратными скобками обозначены град или гололедные отложения с указанием их диаметра в мм.
Облачность - указаны через наклонную черту общая и нижняя облачность в баллах и высота нижней границы облаков в метрах; квадратными скобками обозначены формы облаков: Ci - перистые, Cs - перисто-слоистые, Cc - перисто-кучевые, Ac - высококучевые, As - высокослоистые, Sc - слоисто-кучевые, Ns - слоисто-дождевые, Cu - кучевые, Cb - кучево-дождевые. Подробнее классификацию облаков см. в Атласе облаков (PDF).
T - Температура воздуха - температура, измеренная на высоте 2 м над землей.
Td - Температура точки росы - температура, при понижении до которой содержащийся в воздухе водяной пар достигнет насыщения.
f - Относительная влажность воздуха - влажноcть воздуха, измеренная на высоте 2 м над землей.
Te - Эффективная температура - температура, которую ощущает одетый по сезону человек в тени. Характеристика душности погоды. При расчете учитывается влияние влажности воздуха и скорости ветра на теплоощущения человека.
Tes - Эффективная температура на солнце - температура, которую ощущает человек, с поправкой на солнечный нагрев. Характеристика знойности погоды. Зависит от высоты солнца над горизонтом, облачности и скорости ветра. Ночью, в пасмурную погоду, а также при ветре 12 м/с и более поправка равна нулю.
P - Атмосферное давление - приведенное к уровню моря атмосферное давление.
Po - Атмосферное давление - измеренное на уровне метеостанции атмосферное давление.
Tmin - Минимальная температура - минимум температуры воздуха на высоте 2 м над землей.
Tmax - Максимальная температура - максимум температуры воздуха на высоте 2 м над землей.
R - Количество осадков - Количество выпавших осадков за период времени, мм. При наведении курсора мыши на число - период времени, за который выпало указанное количество осадков.
R24 - Количество осадков - Количество выпавших осадков за 24 часа, мм.
S - Снежный покров - Высота снежного покрова, см. При наведении курсора мыши на число - состояние снежного покрова и степень покрытия местности в баллах.